Погода Фурманово

Погода Фурманово : погода сейчас, прогноз погоды и архив. Всё, что Вы хотите узнать о погоде Фурманово!

Поиск расширенной информации на нашем сайте:

Другие новости

Новости СМИ2

Главная страница сайта

Новости сайта

03.07.2017

Напоминаем, что на нашем специализированном сайте Метеоцентр.Азия вы можете получить высокодетализированные автоматические прогнозы погоды по пунктам России, СНГ и мира в авиационном формате (включающие направление и скорость ветра, видимость, явления погоды, количество и форму облачности, нижнюю и верхнюю границу облачности).


Погода Фурманово - сегодня

Время (UTC), дата Ветер
(°,м/с) 
Видим.   Явления Облачность Т
(°С)
Тd
(°С)
f(%) Тe
(°С)
Pmin
(гПа)
dP
(гПа)
Po
(мм)
O2
(г/м3)
Тmin Tmax R s Состояние
почвы
18 22.09.18 140 (ЮВ) н/о    ясно 
+14.5 +6.6 59 +16  1022  0.5  766  292    +23.4       
21 22.09.18 тихо ()   н/о    ясно 
+12.5 +6.6 67 +13  1021.9  -0.1  766  294           
00 23.09.18 тихо ()   н/о    ясно 
+10.4 +5.8 73 +10  1021.9  766  296           
03 23.09.18 тихо ()   20000 м    ясно 
+8.5 +4.4 75 +9  1021.5  -0.4  765  298           
06 23.09.18 140 (ЮВ) 20000 м    3/0 верхняя 
[Ci fib]
+20.7 +4.2 34 +21  1021.2  -0.3  765  286  +8.4         
09 23.09.18 180 (Ю) 20000 м    3/0 верхняя 
[Ci fib]
+24.3 +1.8 23 +24  1020.2  -0.9  764  283           
12 23.09.18 140 (ЮВ) 20000 м    3/0 верхняя 
[Ci fib]
+25.3 -2.6 16 +25  1018.4  -1.8  763  282           
15 23.09.18 140 (ЮВ) 20000 м    ясно 
+19.9 -3.2 21 +21  1017.4  -1.1  762  287    +25.5       
18 23.09.18 140 (ЮВ) н/о    ясно 
+12.6 -0.8 40 +13  1016.4  -1  762  293    +25.5       
21 23.09.18 180 (Ю) н/о    ясно 
+12.3 +2 49 +12  1015.8  -0.6  761  293           
00 24.09.18 180 (Ю) н/о    3/0 верхняя 
[Cs]
+8.9 +3 66 +8  1014.4  -1.4  760  296           
03 24.09.18 140 (ЮВ) 20000 м    9/0 средняя, верхняя 
[Ac cast|Ci fib]
+11.1 +8.2 82 +10  1013  -1.4  759  292           
06 24.09.18 180 (Ю) 20000 м  слаб. ливневой дождь  10/8 600 м кучево-дожд., средняя 
[Cb cap|As op]
+14.1 +11.9 87 +18  1012.6  -0.4  759  288  +8.1         
09 24.09.18 250 (З) 20000 м  {ливн. осадки}  10/8 600 м кучево-дожд., средняя 
[Cb cap|As op]
+15.3 +12.4 83 +19  1013.1  0.5  759  287           
12 24.09.18 270 (З) 20000 м  {ливн. осадки}  9/9 600 м кучево-дожд. 
[Cb cap]
+14.4 +9.3 71 +13  1014.5  1.4  760  289           
15 24.09.18 270 (З) 20000 м    9/9 600 м кучево-дожд. 
[Cb cap]
+13.9 +9.4 74 +14  1015.1  0.6  761  290    +15.5     
18 24.09.18 230 (ЮЗ) н/о    8/0 средняя, верхняя 
[Ac lent|Cs]
+11.3 +8.9 85 +12  1015.4  0.3  761  293    +15.5     
21 24.09.18 230 (ЮЗ) н/о    3/0 верхняя 
[Ci fib]
+10.1 +8 87 +10  1015.7  0.3  761  294           
00 25.09.18 230 (ЮЗ) н/о    3/0 верхняя 
[Ci fib]
+7 +6.1 94 +8  1015.9  0.2  761  298           
03 25.09.18 230 (ЮЗ) 20000 м    3/0 верхняя 
[Ci fib]
+4.6 +4.1 97 +5  1015.8  -0.1  761  301           
06 25.09.18 180 (Ю) 20000 м    5/0 средняя, верхняя 
[Ac trans|Ci fib]
+15.1 +7.9 62 +15  1016  0.2  761  289  +4.2         
09 25.09.18 180 (Ю) 20000 м    8/0 средняя, верхняя 
[Ac cast|Ci fib]
+19.5 +6.2 42 +20  1015.8  -0.8  761  285           
12 25.09.18 180 (Ю) 20000 м    8/4 600 м кучево-дожд., средняя, верхняя 
[Cb cap|Ac cuf|Ci fib]
+21 +4.5 34 +21  1014.2  -0.9  760  284           
15 25.09.18 160 (Ю) 20000 м    9/5 600 м кучево-дожд., средняя, верхняя 
[Cb cap|Ac cuf|Ci fib]
+19.6 +4 36 +20  1014.1  -0.2  760  285    +21.5       
18 25.09.18 180 (Ю) н/о    8/3 600 м кучево-дожд., средняя, верхняя 
[Cb cap|Ac cuf|Ci fib]
+16.7 +4.6 45 +18  1014.4  0.3  760  288    +21.5       
Время (UTC), дата Ветер
(°,м/с) 
Видим.   Явления Облачность Т
(°С)
Тd
(°С)
f(%) Тe
(°С)
Pmin
(гПа)
dP
(гПа)
Po
(мм)
O2
(г/м3)
Тmin Tmax R s Состояние
почвы

Для получения пояснительной информации подведите курсор к названию столбца.

ПОГОДА Фурманово - архив

Всё, что Вы хотите узнать о погоде Фурманово - удобно и подробно!

Выберите нужную дату (начиная с 1 января 2015* года) и нажмите кнопку "Найти".
Будут отображены архивные сводки погоды по пункту Фурманово, начиная с указанной даты.


Отображать данные в формате CSV (для использования в таблицах Excel)


Внимание! Наш архив погоды предназначен исключительно для личного некоммерческого использования в познавательных целях. Если Вам необходимы официальные справки о состоянии погоды (для производственных, юридических, коммерческих и т.п. целей), обращайтесь в органы Росгидромета.

*Примечание: данная дата относится к архиву по метеостанциям СССР (Россия, СНГ, Балтия).
Архив по метеостанциям Зарубежной Европы и Азии (кроме Китая) хранится 10 дней, по другим регионам земного шара (Китай, Африка, Америка, Австралия, Океания) - 1 день.

Фурманово - район местоположения метеостанции


Название, широта, долгота, высота метеостанции:
Фурманово 49.7°ш. 49.5°д. 10 м над ур. моря [Казахстан]

Дополнительная информация

В oтличие oт бoльшинства пoгoдных сайтoв мы публикуем пoдрoбную метеoинфoрмацию в детальнoм прoфессиoнальнoм фoрмате.

Характеристики температуры и влажнoсти вoздуха измеряются на высoте 2 м в тени вдали oт зданий и деревьев.
Скoрoсть ветра измеряется на высoте 10 м (на урoвне рoста челoвека скoрoсть ветра ниже в 1.5-2 раза). Если метеoстанция нахoдится в гoрoде или в лесу, тo скoрoсть ветра занижена на 2-4 м/с пo сравнению с oткрытым местoм. Скoрoсть ветра над акватoриями крупных рек и oзёр, а также на вершинах хoлмoв на 2-5 м/с выше, чем в oбычных услoвиях.
Атмoсфернoе давление в разных тoчках местнoсти мoжет значительнo oтличаться oт давления на метеoстанции, в зависимoсти oт услoвий рельефа (при пoдъёме на 10 м давление пoнижается примернo на 1 мм рт.ст.).